QPF
0.00 0.00 0.00 0.00 0.00 0.00 0.00 0.00 0.00 0.00 0.00 0.00 0.00 0.01 0.01 0.01 0.01 0.02 0.02 0.02 0.03 0.04 0.12 0.19 0.33 0.46 0.47 0.48 0.48 0.37 0.32 0.26 0.18 0.13 0.12 0.08 0.06 0.03 0.03 0.02 0.01 0.01 0.00 0.00
0.00 0.00 0.00 0.00 0.00 0.00 0.00 0.00 0.00 0.00 0.00 0.00 0.00 0.00 0.00 0.00 0.01 0.01 0.01 0.02 0.02 0.03 0.05 0.10 0.21 0.29 0.33 0.38 0.40 0.37 0.29 0.21 0.13 0.11 0.10 0.09 0.06 0.03 0.02 0.02 0.01 0.01 0.00 0.00
0.00 0.00 0.00 0.00 0.00 0.00 0.00 0.00 0.00 0.00 0.00 0.00 0.00 0.00 0.00 0.00 0.00 0.00 0.01 0.01 0.01 0.01 0.02 0.05 0.10 0.16 0.20 0.28 0.27 0.27 0.24 0.21 0.15 0.13 0.11 0.09 0.05 0.03 0.02 0.02 0.01 0.00 0.00 0.00
0.00 0.00 0.00 0.00 0.00 0.00 0.00 0.00 0.00 0.00 0.00 0.00 0.00 0.00 0.00 0.00 0.00 0.00 0.00 0.01 0.01 0.01 0.01 0.02 0.04 0.07 0.12 0.16 0.17 0.16 0.18 0.19 0.15 0.12 0.08 0.06 0.04 0.02 0.01 0.01 0.01 0.00 0.00 0.00
0.00 0.00 0.00 0.00 0.00 0.00 0.00 0.00 0.00 0.00 0.00 0.00 0.00 0.00 0.00 0.00 0.00 0.00 0.00 0.00 0.00 0.00 0.01 0.01 0.03 0.06 0.08 0.10 0.11 0.12 0.17 0.18 0.14 0.10 0.07 0.05 0.04 0.03 0.01 0.01 0.00 0.00 0.00 0.00
0.00 0.00 0.00 0.00 0.00 0.00 0.00 0.00 0.00 0.00 0.00 0.00 0.00 0.00 0.00 0.00 0.00 0.00 0.00 0.00 0.00 0.00 0.00 0.01 0.02 0.04 0.06 0.07 0.09 0.11 0.14 0.15 0.12 0.10 0.08 0.05 0.03 0.03 0.02 0.01 0.01 0.00 0.00 0.00
0.00 0.00 0.00 0.00 0.00 0.00 0.00 0.00 0.00 0.00 0.00 0.00 0.00 0.00 0.00 0.00 0.00 0.00 0.00 0.00 0.00 0.00 0.00 0.01 0.01 0.02 0.05 0.06 0.06 0.07 0.10 0.12 0.09 0.08 0.07 0.05 0.04 0.04 0.03 0.02 0.01 0.01 0.00 0.00
0.00 0.00 0.00 0.00 0.00 0.00 0.00 0.00 0.00 0.00 0.00 0.00 0.00 0.00 0.00 0.00 0.00 0.00 0.00 0.00 0.00 0.00 0.00 0.00 0.01 0.02 0.04 0.04 0.05 0.06 0.09 0.11 0.08 0.07 0.06 0.05 0.04 0.04 0.03 0.02 0.02 0.01 0.01 0.01
0.00 0.00 0.00 0.00 0.00 0.00 0.00 0.00 0.01 0.01 0.00 0.00 0.00 0.00 0.00 0.00 0.00 0.00 0.00 0.00 0.00 0.00 0.00 0.00 0.00 0.02 0.02 0.02 0.04 0.05 0.08 0.09 0.07 0.07 0.06 0.05 0.04 0.04 0.04 0.02 0.01 0.01 0.01 0.01
0.00 0.00 0.00 0.00 0.00 0.00 0.00 0.00 0.00 0.00 0.00 0.00 0.00 0.00 0.00 0.00 0.00 0.00 0.00 0.00 0.00 0.00 0.00 0.00 0.00 0.02 0.02 0.02 0.03 0.05 0.07 0.07 0.06 0.07 0.05 0.05 0.05 0.05 0.05 0.03 0.01 0.01 0.01 0.01
0.00 0.00 0.00 0.00 0.00 0.00 0.00 0.00 0.00 0.01 0.01 0.00 0.00 0.00 0.00 0.00 0.00 0.00 0.00 0.00 0.00 0.00 0.00 0.00 0.01 0.01 0.02 0.01 0.02 0.03 0.05 0.06 0.05 0.06 0.06 0.05 0.05 0.05 0.06 0.05 0.03 0.02 0.02 0.01
0.00 0.00 0.00 0.00 0.00 0.00 0.00 0.00 0.00 0.01 0.01 0.01 0.00 0.00 0.01 0.00 0.00 0.00 0.00 0.00 0.00 0.01 0.01 0.01 0.01 0.01 0.00 0.01 0.01 0.02 0.03 0.05 0.05 0.06 0.08 0.07 0.08 0.08 0.06 0.04 0.04 0.03 0.03 0.02
0.00 0.00 0.00 0.00 0.00 0.00 0.00 0.00 0.01 0.01 0.01 0.01 0.00 0.00 0.00 0.00 0.00 0.00 0.00 0.00 0.01 0.01 0.01 0.02 0.01 0.01 0.01 0.01 0.02 0.03 0.04 0.06 0.08 0.08 0.09 0.09 0.10 0.09 0.08 0.06 0.06 0.07 0.05 0.04
0.00 0.00 0.00 0.00 0.00 0.00 0.00 0.01 0.01 0.01 0.01 0.00 0.00 0.00 0.00 0.00 0.00 0.00 0.00 0.00 0.01 0.01 0.01 0.02 0.02 0.02 0.02 0.03 0.06 0.08 0.11 0.12 0.12 0.11 0.11 0.10 0.10 0.09 0.08 0.07 0.05 0.06 0.07 0.07
0.00 0.00 0.00 0.00 0.00 0.00 0.00 0.00 0.01 0.01 0.01 0.00 0.00 0.00 0.00 0.00 0.00 0.00 0.00 0.00 0.01 0.02 0.02 0.03 0.03 0.04 0.04 0.04 0.06 0.10 0.16 0.17 0.18 0.20 0.19 0.15 0.11 0.09 0.08 0.06 0.06 0.08 0.10 0.12
0.00 0.00 0.00 0.00 0.00 0.00 0.00 0.00 0.00 0.01 0.01 0.01 0.00 0.00 0.01 0.01 0.01 0.00 0.00 0.00 0.01 0.02 0.03 0.03 0.04 0.04 0.04 0.05 0.08 0.11 0.16 0.20 0.26 0.32 0.29 0.19 0.14 0.11 0.10 0.09 0.09 0.09 0.10 0.12
0.00 0.00 0.00 0.00 0.00 0.00 0.00 0.00 0.01 0.01 0.00 0.01 0.01 0.01 0.01 0.01 0.01 0.01 0.01 0.01 0.01 0.03 0.04 0.04 0.05 0.05 0.08 0.09 0.11 0.12 0.14 0.18 0.23 0.25 0.23 0.20 0.18 0.16 0.15 0.14 0.13 0.10 0.08 0.08
0.00 0.00 0.00 0.00 0.00 0.00 0.00 0.00 0.01 0.01 0.01 0.01 0.01 0.01 0.01 0.02 0.03 0.04 0.05 0.05 0.04 0.04 0.04 0.05 0.06 0.06 0.08 0.11 0.11 0.12 0.13 0.14 0.16 0.16 0.17 0.16 0.15 0.14 0.12 0.09 0.07 0.05 0.04 0.04
0.00 0.00 0.00 0.00 0.00 0.00 0.00 0.01 0.01 0.01 0.02 0.03 0.03 0.02 0.02 0.04 0.06 0.07 0.07 0.10 0.08 0.06 0.05 0.05 0.05 0.06 0.07 0.08 0.08 0.08 0.08 0.10 0.10 0.10 0.10 0.08 0.07 0.06 0.05 0.04 0.03 0.03 0.03 0.03
0.00 0.00 0.00 0.01 0.01 0.01 0.01 0.01 0.01 0.02 0.03 0.04 0.05 0.04 0.06 0.08 0.09 0.09 0.09 0.08 0.08 0.06 0.05 0.04 0.04 0.04 0.04 0.04 0.04 0.05 0.05 0.06 0.06 0.05 0.04 0.03 0.02 0.02 0.01 0.01 0.01 0.01 0.01 0.01
0.01 0.01 0.01 0.01 0.01 0.01 0.03 0.03 0.03 0.05 0.04 0.08 0.12 0.15 0.17 0.18 0.16 0.14 0.12 0.10 0.07 0.05 0.04 0.03 0.03 0.03 0.03 0.03 0.03 0.03 0.02 0.02 0.01 0.01 0.01 0.01 0.01 0.01 0.01 0.01 0.00 0.01 0.01 0.01
0.01 0.02 0.02 0.02 0.03 0.04 0.04 0.04 0.05 0.06 0.07 0.09 0.17 0.26 0.25 0.24 0.22 0.20 0.16 0.11 0.08 0.05 0.03 0.02 0.02 0.02 0.02 0.02 0.01 0.01 0.01 0.01 0.01 0.00 0.00 0.00 0.00 0.00 0.00 0.00 0.00 0.00 0.01 0.01
0.02 0.02 0.03 0.05 0.05 0.05 0.05 0.05 0.06 0.09 0.11 0.13 0.18 0.27 0.32 0.28 0.23 0.18 0.14 0.10 0.07 0.05 0.03 0.02 0.01 0.01 0.01 0.01 0.01 0.00 0.00 0.00 0.00 0.00 0.00 0.00 0.00 0.00 0.00 0.00 0.00 0.00 0.00 0.00
0.04 0.03 0.04 0.08 0.08 0.06 0.07 0.09 0.09 0.12 0.15 0.18 0.22 0.26 0.27 0.25 0.21 0.15 0.09 0.05 0.03 0.02 0.02 0.01 0.01 0.01 0.00 0.00 0.00 0.00 0.00 0.00 0.00 0.00 0.00 0.00 0.00 0.00 0.00 0.00 0.00 0.00 0.00 0.00
0.05 0.06 0.05 0.06 0.07 0.07 0.09 0.12 0.14 0.15 0.17 0.20 0.24 0.27 0.23 0.18 0.16 0.12 0.08 0.05 0.03 0.01 0.01 0.01 0.00 0.00 0.00 0.00 0.00 0.00 0.00 0.00 0.00 0.00 0.00 0.00 0.00 0.00 0.00 0.00 0.00 0.00 0.00 0.00
0.08 0.10 0.11 0.12 0.12 0.13 0.15 0.17 0.17 0.17 0.18 0.22 0.24 0.23 0.19 0.15 0.13 0.10 0.06 0.04 0.02 0.02 0.01 0.01 0.00 0.00 0.00 0.00 0.00 0.00 0.00 0.00 0.00 0.00 0.00 0.00 0.00 0.00 0.00 0.00 0.00 0.00 0.00 0.00
MSLP
1011.36 1012.11 1012.64 1012.94 1013.05 1013.02 1012.91 1012.74 1012.53 1012.27 1011.95 1011.55 1011.05 1010.48 1009.86 1009.26 1008.75 1008.37 1008.16 1008.14 1008.28 1008.54 1008.86 1009.20 1009.51 1009.79 1010.05 1010.33 1010.66 1011.09 1011.63 1012.28 1013.02 1013.80 1014.56 1015.24 1015.81 1016.26 1016.57 1016.79 1016.95 1017.08 1017.22 1017.38
1011.77 1012.37 1012.75 1012.93 1012.97 1012.95 1012.91 1012.88 1012.85 1012.79 1012.64 1012.37 1011.94 1011.38 1010.72 1010.04 1009.42 1008.94 1008.64 1008.54 1008.62 1008.82 1009.08 1009.34 1009.56 1009.73 1009.87 1010.04 1010.30 1010.68 1011.24 1011.95 1012.79 1013.68 1014.55 1015.34 1015.99 1016.47 1016.79 1017.00 1017.13 1017.23 1017.35 1017.52
1011.85 1012.29 1012.51 1012.58 1012.58 1012.60 1012.68 1012.83 1013.02 1013.19 1013.24 1013.11 1012.77 1012.22 1011.52 1010.75 1010.03 1009.44 1009.04 1008.86 1008.88 1009.03 1009.23 1009.43 1009.57 1009.65 1009.71 1009.79 1009.98 1010.33 1010.89 1011.65 1012.56 1013.55 1014.52 1015.40 1016.11 1016.63 1016.97 1017.16 1017.27 1017.35 1017.47 1017.64
1011.63 1011.89 1011.96 1011.95 1011.95 1012.05 1012.29 1012.66 1013.10 1013.51 1013.76 1013.78 1013.52 1012.97 1012.22 1011.35 1010.51 1009.80 1009.30 1009.05 1009.01 1009.12 1009.30 1009.47 1009.58 1009.61 1009.61 1009.64 1009.78 1010.10 1010.65 1011.43 1012.38 1013.43 1014.47 1015.40 1016.17 1016.72 1017.07 1017.26 1017.35 1017.43 1017.53 1017.71
1011.18 1011.27 1011.23 1011.17 1011.20 1011.42 1011.86 1012.47 1013.16 1013.80 1014.25 1014.40 1014.18 1013.62 1012.79 1011.81 1010.84 1010.01 1009.41 1009.09 1009.02 1009.12 1009.31 1009.50 1009.62 1009.65 1009.64 1009.64 1009.75 1010.04 1010.56 1011.33 1012.28 1013.34 1014.40 1015.37 1016.15 1016.72 1017.08 1017.27 1017.36 1017.44 1017.55 1017.73
1010.64 1010.59 1010.45 1010.38 1010.49 1010.85 1011.49 1012.33 1013.26 1014.10 1014.71 1014.94 1014.75 1014.15 1013.22 1012.12 1011.02 1010.07 1009.39 1009.02 1008.93 1009.06 1009.30 1009.55 1009.72 1009.81 1009.82 1009.83 1009.92 1010.17 1010.65 1011.37 1012.27 1013.30 1014.33 1015.28 1016.07 1016.64 1017.00 1017.20 1017.30 1017.38 1017.50 1017.70
1010.13 1009.96 1009.78 1009.73 1009.93 1010.44 1011.25 1012.30 1013.41 1014.41 1015.11 1015.39 1015.18 1014.51 1013.48 1012.26 1011.04 1010.00 1009.25 1008.86 1008.79 1008.98 1009.31 1009.65 1009.93 1010.10 1010.17 1010.21 1010.29 1010.50 1010.92 1011.55 1012.37 1013.31 1014.27 1015.17 1015.92 1016.48 1016.84 1017.04 1017.16 1017.25 1017.39 1017.60
1009.75 1009.50 1009.31 1009.30 1009.59 1010.22 1011.18 1012.36 1013.59 1014.67 1015.40 1015.67 1015.41 1014.66 1013.53 1012.21 1010.91 1009.81 1009.04 1008.65 1008.64 1008.91 1009.35 1009.82 1010.22 1010.50 1010.65 1010.73 1010.81 1010.98 1011.31 1011.84 1012.54 1013.36 1014.23 1015.04 1015.74 1016.26 1016.61 1016.83 1016.96 1017.06 1017.21 1017.43
1009.53 1009.25 1009.07 1009.11 1009.48 1010.20 1011.24 1012.48 1013.73 1014.80 1015.50 1015.71 1015.38 1014.55 1013.35 1011.97 1010.63 1009.52 1008.77 1008.43 1008.50 1008.87 1009.43 1010.04 1010.57 1010.96 1011.19 1011.32 1011.40 1011.53 1011.78 1012.19 1012.76 1013.45 1014.19 1014.91 1015.53 1016.02 1016.36 1016.58 1016.71 1016.83 1016.98 1017.19
1009.46 1009.20 1009.06 1009.15 1009.56 1010.31 1011.35 1012.56 1013.75 1014.74 1015.34 1015.45 1015.04 1014.14 1012.91 1011.52 1010.21 1009.14 1008.45 1008.20 1008.36 1008.85 1009.52 1010.24 1010.89 1011.38 1011.70 1011.87 1011.97 1012.07 1012.24 1012.55 1013.00 1013.56 1014.18 1014.79 1015.34 1015.78 1016.10 1016.31 1016.45 1016.57 1016.70 1016.89
1009.51 1009.31 1009.22 1009.35 1009.77 1010.49 1011.45 1012.54 1013.58 1014.41 1014.87 1014.86 1014.36 1013.43 1012.22 1010.89 1009.65 1008.69 1008.11 1007.96 1008.22 1008.80 1009.57 1010.38 1011.11 1011.69 1012.07 1012.29 1012.41 1012.50 1012.63 1012.86 1013.21 1013.66 1014.18 1014.70 1015.18 1015.58 1015.87 1016.06 1016.20 1016.30 1016.41 1016.55
1009.63 1009.50 1009.48 1009.63 1010.02 1010.66 1011.47 1012.37 1013.21 1013.83 1014.10 1013.96 1013.40 1012.48 1011.32 1010.10 1009.01 1008.18 1007.74 1007.71 1008.06 1008.72 1009.54 1010.40 1011.19 1011.81 1012.25 1012.52 1012.67 1012.76 1012.89 1013.08 1013.37 1013.75 1014.19 1014.64 1015.06 1015.41 1015.68 1015.86 1015.97 1016.05 1016.12 1016.21
1009.79 1009.76 1009.80 1009.96 1010.29 1010.80 1011.42 1012.08 1012.66 1013.03 1013.12 1012.85 1012.24 1011.35 1010.30 1009.24 1008.32 1007.67 1007.37 1007.46 1007.88 1008.58 1009.42 1010.29 1011.08 1011.73 1012.21 1012.52 1012.72 1012.86 1013.01 1013.21 1013.48 1013.83 1014.22 1014.62 1015.00 1015.31 1015.55 1015.70 1015.79 1015.84 1015.87 1015.91
1010.00 1010.08 1010.17 1010.32 1010.57 1010.91 1011.31 1011.70 1012.00 1012.12 1012.01 1011.63 1011.00 1010.17 1009.26 1008.38 1007.65 1007.19 1007.04 1007.22 1007.70 1008.40 1009.22 1010.06 1010.84 1011.48 1011.99 1012.35 1012.61 1012.82 1013.02 1013.27 1013.56 1013.90 1014.28 1014.65 1015.00 1015.28 1015.49 1015.62 1015.68 1015.70 1015.70 1015.70
1010.30 1010.46 1010.58 1010.71 1010.85 1011.01 1011.17 1011.29 1011.31 1011.19 1010.90 1010.42 1009.78 1009.04 1008.27 1007.58 1007.06 1006.78 1006.77 1007.03 1007.54 1008.22 1008.99 1009.78 1010.51 1011.15 1011.67 1012.08 1012.42 1012.71 1013.00 1013.31 1013.65 1014.02 1014.39 1014.75 1015.07 1015.32 1015.50 1015.61 1015.66 1015.67 1015.65 1015.62
1010.70 1010.91 1011.05 1011.13 1011.16 1011.13 1011.05 1010.91 1010.67 1010.32 1009.87 1009.31 1008.68 1008.03 1007.42 1006.92 1006.60 1006.48 1006.60 1006.93 1007.45 1008.09 1008.81 1009.54 1010.22 1010.84 1011.37 1011.84 1012.25 1012.63 1013.02 1013.40 1013.80 1014.20 1014.58 1014.92 1015.22 1015.44 1015.60 1015.70 1015.75 1015.75 1015.74 1015.71
1011.21 1011.44 1011.56 1011.56 1011.46 1011.25 1010.95 1010.56 1010.09 1009.56 1008.97 1008.36 1007.76 1007.20 1006.74 1006.43 1006.28 1006.32 1006.55 1006.94 1007.47 1008.09 1008.75 1009.42 1010.06 1010.66 1011.21 1011.73 1012.22 1012.69 1013.15 1013.61 1014.06 1014.48 1014.86 1015.19 1015.46 1015.66 1015.80 1015.90 1015.95 1015.98 1015.99 1015.99
1011.78 1011.98 1012.04 1011.95 1011.70 1011.32 1010.83 1010.23 1009.58 1008.90 1008.21 1007.58 1007.01 1006.56 1006.25 1006.10 1006.12 1006.31 1006.65 1007.10 1007.65 1008.26 1008.89 1009.52 1010.13 1010.72 1011.30 1011.86 1012.41 1012.95 1013.48 1013.98 1014.46 1014.89 1015.26 1015.56 1015.80 1015.98 1016.11 1016.21 1016.29 1016.35 1016.41 1016.47
1012.33 1012.46 1012.42 1012.20 1011.82 1011.28 1010.62 1009.87 1009.08 1008.30 1007.56 1006.93 1006.42 1006.08 1005.91 1005.92 1006.11 1006.43 1006.88 1007.42 1008.01 1008.62 1009.25 1009.87 1010.47 1011.07 1011.67 1012.26 1012.86 1013.44 1014.01 1014.54 1015.02 1015.44 1015.78 1016.05 1016.26 1016.42 1016.54 1016.65 1016.76 1016.88 1017.00 1017.12
1012.75 1012.75 1012.59 1012.24 1011.72 1011.06 1010.27 1009.42 1008.55 1007.72 1006.98 1006.38 1005.96 1005.73 1005.71 1005.88 1006.21 1006.68 1007.25 1007.87 1008.53 1009.18 1009.83 1010.46 1011.08 1011.70 1012.32 1012.93 1013.55 1014.16 1014.73 1015.26 1015.72 1016.11 1016.42 1016.65 1016.83 1016.97 1017.09 1017.22 1017.36 1017.53 1017.72 1017.91
1012.92 1012.79 1012.48 1012.01 1011.38 1010.62 1009.76 1008.86 1007.97 1007.15 1006.45 1005.93 1005.61 1005.51 1005.63 1005.95 1006.43 1007.04 1007.72 1008.45 1009.18 1009.90 1010.60 1011.26 1011.91 1012.55 1013.18 1013.81 1014.43 1015.03 1015.59 1016.09 1016.52 1016.87 1017.15 1017.35 1017.50 1017.62 1017.75 1017.90 1018.07 1018.29 1018.52 1018.77
1012.81 1012.52 1012.09 1011.52 1010.81 1009.99 1009.12 1008.22 1007.37 1006.61 1006.00 1005.59 1005.39 1005.42 1005.68 1006.14 1006.76 1007.49 1008.29 1009.12 1009.94 1010.73 1011.48 1012.19 1012.87 1013.53 1014.17 1014.79 1015.40 1015.98 1016.51 1016.98 1017.37 1017.69 1017.93 1018.11 1018.25 1018.37 1018.50 1018.67 1018.87 1019.11 1019.38 1019.65
1012.40 1011.99 1011.46 1010.82 1010.08 1009.26 1008.42 1007.59 1006.83 1006.18 1005.69 1005.41 1005.34 1005.51 1005.89 1006.47 1007.20 1008.05 1008.94 1009.86 1010.76 1011.61 1012.42 1013.17 1013.87 1014.54 1015.18 1015.79 1016.37 1016.92 1017.41 1017.85 1018.21 1018.51 1018.73 1018.90 1019.05 1019.18 1019.32 1019.50 1019.71 1019.96 1020.23 1020.49
1011.78 1011.29 1010.70 1010.04 1009.32 1008.56 1007.81 1007.10 1006.46 1005.96 1005.61 1005.46 1005.53 1005.81 1006.30 1006.97 1007.79 1008.70 1009.67 1010.65 1011.60 1012.50 1013.34 1014.12 1014.84 1015.50 1016.13 1016.72 1017.27 1017.78 1018.24 1018.65 1019.00 1019.29 1019.52 1019.70 1019.86 1020.01 1020.18 1020.36 1020.57 1020.80 1021.03 1021.27
1011.06 1010.55 1009.97 1009.34 1008.69 1008.04 1007.42 1006.86 1006.39 1006.04 1005.84 1005.82 1006.00 1006.37 1006.93 1007.66 1008.52 1009.47 1010.47 1011.47 1012.44 1013.36 1014.22 1015.00 1015.71 1016.37 1016.97 1017.53 1018.05 1018.53 1018.97 1019.36 1019.71 1020.01 1020.26 1020.48 1020.67 1020.84 1021.02 1021.20 1021.39 1021.58 1021.77 1021.94
1010.41 1009.92 1009.40 1008.86 1008.33 1007.83 1007.37 1006.98 1006.67 1006.48 1006.42 1006.52 1006.78 1007.21 1007.80 1008.54 1009.40 1010.34 1011.32 1012.31 1013.27 1014.18 1015.02 1015.79 1016.48 1017.11 1017.68 1018.21 1018.70 1019.15 1019.58 1019.97 1020.33 1020.65 1020.94 1021.20 1021.43 1021.63 1021.81 1021.99 1022.14 1022.29 1022.41 1022.49
Thickness
5776 5760 5749 5753 5759 5761 5756 5750 5747 5761 5777 5771 5764 5761 5760 5760 5755 5749 5745 5741 5737 5734 5733 5731 5727 5724 5723 5722 5721 5721 5721 5721 5721 5721 5720 5718 5718 5719 5719 5720 5720 5721 5721 5721
5757 5751 5763 5767 5766 5761 5755 5748 5749 5763 5774 5767 5757 5756 5759 5757 5752 5749 5745 5740 5737 5733 5730 5728 5725 5723 5722 5721 5720 5719 5720 5721 5722 5722 5721 5719 5717 5716 5717 5717 5717 5718 5719 5719
5749 5760 5773 5768 5762 5758 5757 5752 5754 5755 5763 5760 5752 5747 5752 5755 5753 5749 5747 5743 5739 5735 5731 5728 5724 5723 5721 5719 5719 5719 5719 5719 5720 5720 5718 5716 5714 5713 5713 5713 5714 5715 5716 5717
5751 5765 5767 5763 5760 5762 5750 5767 5766 5760 5747 5735 5738 5722 5744 5747 5746 5746 5743 5741 5738 5736 5734 5730 5727 5724 5722 5721 5720 5719 5719 5718 5718 5718 5717 5715 5712 5710 5711 5712 5712 5713 5714 5715
5751 5764 5763 5759 5766 5769 5763 5767 5761 5752 5740 5729 5730 5721 5731 5743 5742 5744 5744 5742 5740 5738 5736 5733 5730 5727 5724 5723 5720 5720 5719 5717 5717 5717 5717 5715 5712 5712 5711 5711 5710 5710 5711 5713
5760 5771 5771 5771 5779 5777 5770 5759 5748 5734 5725 5716 5727 5720 5724 5736 5745 5747 5747 5746 5743 5741 5739 5736 5733 5729 5725 5724 5722 5721 5719 5717 5717 5716 5716 5715 5713 5711 5710 5709 5708 5709 5709 5711
5747 5760 5772 5779 5767 5768 5761 5736 5714 5713 5703 5710 5725 5719 5726 5752 5757 5755 5752 5749 5747 5744 5740 5736 5733 5730 5727 5724 5723 5722 5720 5717 5717 5716 5715 5715 5714 5712 5711 5711 5710 5709 5709 5709
5728 5733 5762 5772 5766 5756 5752 5740 5713 5704 5701 5710 5722 5719 5741 5763 5764 5762 5758 5753 5749 5745 5742 5738 5736 5733 5730 5728 5725 5722 5720 5718 5717 5716 5715 5715 5714 5713 5712 5712 5712 5711 5711 5711
5724 5730 5764 5775 5777 5768 5750 5738 5740 5716 5710 5705 5714 5728 5748 5764 5760 5759 5756 5752 5749 5747 5744 5740 5738 5735 5732 5730 5727 5725 5722 5719 5718 5717 5716 5715 5714 5713 5712 5712 5712 5711 5711 5711
5740 5732 5752 5767 5772 5768 5762 5745 5723 5712 5700 5698 5713 5721 5731 5753 5755 5755 5753 5752 5751 5748 5745 5742 5739 5736 5734 5732 5729 5727 5724 5722 5720 5718 5717 5715 5714 5713 5712 5711 5710 5710 5710 5710
5741 5730 5739 5751 5751 5749 5747 5739 5726 5710 5709 5699 5698 5718 5756 5759 5761 5757 5756 5755 5752 5749 5746 5744 5741 5739 5736 5733 5730 5728 5725 5722 5719 5717 5716 5714 5713 5711 5710 5709 5709 5709 5709 5708
5735 5722 5719 5734 5751 5757 5751 5741 5725 5715 5710 5703 5701 5721 5769 5766 5765 5762 5759 5757 5755 5752 5749 5745 5742 5739 5735 5733 5730 5727 5725 5722 5720 5717 5715 5713 5712 5710 5709 5708 5708 5708 5707 5706
5730 5714 5704 5713 5726 5738 5737 5737 5729 5718 5707 5696 5699 5725 5765 5764 5763 5762 5760 5758 5754 5751 5748 5744 5741 5738 5735 5733 5730 5727 5725 5723 5720 5717 5714 5712 5710 5708 5707 5706 5706 5704 5703 5702
5729 5709 5702 5700 5709 5723 5725 5730 5726 5716 5703 5699 5710 5730 5752 5758 5757 5757 5757 5755 5753 5749 5746 5743 5739 5737 5735 5732 5729 5727 5725 5722 5719 5715 5711 5708 5707 5705 5704 5703 5702 5701 5700 5699
5720 5703 5706 5709 5718 5720 5720 5724 5724 5718 5717 5713 5724 5731 5749 5756 5757 5756 5755 5752 5749 5745 5742 5740 5737 5734 5732 5729 5727 5725 5722 5720 5716 5711 5707 5704 5703 5701 5700 5698 5697 5696 5695 5695
5704 5697 5697 5699 5710 5710 5710 5720 5722 5723 5724 5722 5728 5734 5754 5755 5755 5753 5751 5750 5746 5742 5740 5737 5734 5731 5729 5727 5724 5722 5719 5716 5712 5708 5703 5700 5698 5695 5694 5693 5692 5690 5689 5687
5686 5683 5676 5674 5692 5694 5688 5711 5718 5721 5727 5727 5723 5738 5746 5745 5746 5746 5745 5745 5742 5739 5736 5732 5729 5726 5724 5721 5720 5717 5715 5711 5706 5702 5697 5695 5693 5690 5688 5687 5685 5683 5680 5679
5675 5669 5661 5660 5670 5661 5693 5716 5720 5719 5724 5728 5731 5736 5738 5739 5738 5737 5738 5738 5735 5732 5728 5725 5722 5719 5716 5714 5712 5711 5708 5704 5699 5695 5691 5689 5687 5683 5680 5678 5675 5673 5670 5668
5669 5661 5651 5647 5649 5663 5688 5702 5704 5702 5707 5722 5722 5725 5727 5728 5727 5722 5726 5728 5726 5722 5718 5715 5713 5710 5706 5704 5703 5701 5697 5694 5690 5685 5682 5680 5678 5675 5672 5668 5665 5662 5659 5655
5657 5654 5647 5641 5644 5648 5676 5695 5700 5695 5690 5713 5716 5716 5717 5719 5712 5711 5713 5715 5712 5709 5705 5702 5701 5698 5695 5692 5692 5690 5685 5682 5677 5674 5672 5670 5668 5664 5660 5656 5653 5650 5647 5643
5645 5642 5640 5637 5638 5652 5676 5685 5687 5672 5684 5702 5706 5708 5709 5708 5709 5704 5702 5700 5698 5695 5691 5689 5688 5686 5682 5681 5681 5676 5672 5667 5665 5663 5661 5658 5655 5652 5648 5644 5640 5637 5633 5629
5639 5635 5634 5632 5632 5645 5671 5673 5670 5674 5683 5690 5694 5697 5695 5695 5694 5691 5688 5685 5683 5680 5676 5675 5675 5672 5669 5669 5669 5663 5657 5654 5654 5652 5648 5645 5642 5640 5635 5631 5626 5623 5619 5615
5635 5637 5637 5638 5644 5658 5664 5665 5671 5673 5676 5680 5683 5686 5686 5683 5680 5677 5675 5672 5669 5666 5664 5662 5662 5659 5657 5655 5655 5650 5645 5644 5643 5639 5635 5631 5628 5624 5621 5617 5613 5608 5603 5600
5640 5641 5637 5639 5650 5656 5661 5666 5669 5672 5673 5675 5676 5677 5677 5673 5668 5664 5663 5660 5657 5655 5652 5650 5650 5647 5643 5641 5640 5637 5634 5633 5631 5625 5620 5617 5613 5609 5605 5602 5598 5594 5589 5585
5639 5639 5636 5639 5648 5654 5659 5660 5664 5667 5668 5668 5666 5666 5664 5662 5657 5654 5651 5648 5647 5644 5640 5640 5638 5634 5629 5628 5626 5624 5622 5621 5616 5611 5607 5603 5599 5595 5590 5586 5581 5578 5574 5570
5637 5637 5636 5639 5647 5647 5650 5655 5660 5660 5659 5658 5656 5653 5651 5651 5647 5643 5640 5639 5637 5634 5630 5628 5625 5622 5618 5616 5614 5611 5610 5608 5604 5598 5593 5589 5585 5581 5576 5571 5565 5560 5557 5554